Temp
-17 -17 -16 -16 -16 -16 -16 -16 -16 -16 -16 -16 -15 -15 -15 -15 -15 -15 -15 -15 -15 -15 -15 -15 -15 -15 -15 -15 -15 -14 -14 -14 -14 -14 -15 -15 -15 -15 -15 -15 -15 -16
-17 -17 -17 -17 -17 -17 -17 -16 -16 -16 -16 -16 -16 -16 -15 -15 -15 -15 -15 -15 -15 -15 -15 -15 -15 -15 -15 -15 -15 -15 -14 -14 -15 -15 -15 -15 -15 -15 -15 -15 -16 -16
-17 -17 -17 -17 -17 -17 -17 -17 -17 -16 -16 -16 -16 -16 -16 -16 -16 -15 -15 -15 -15 -15 -15 -15 -15 -15 -15 -15 -15 -15 -15 -15 -15 -15 -15 -15 -15 -15 -15 -15 -16 -16
-17 -17 -17 -17 -17 -17 -17 -17 -17 -17 -17 -16 -16 -16 -16 -16 -16 -16 -16 -15 -15 -15 -15 -15 -15 -15 -15 -15 -15 -15 -15 -15 -15 -15 -15 -15 -15 -15 -15 -16 -16 -16
-17 -17 -18 -17 -17 -17 -17 -17 -17 -17 -17 -17 -17 -16 -16 -16 -16 -16 -16 -16 -15 -15 -15 -15 -15 -15 -15 -15 -15 -15 -16 -16 -16 -16 -16 -16 -16 -16 -16 -16 -16 -16
-17 -17 -18 -18 -18 -18 -18 -17 -17 -17 -17 -17 -17 -17 -17 -17 -16 -16 -16 -16 -16 -16 -16 -16 -15 -15 -16 -16 -16 -16 -16 -16 -16 -16 -16 -16 -16 -16 -16 -16 -16 -16
-17 -17 -17 -18 -18 -18 -18 -18 -18 -18 -17 -17 -17 -17 -17 -17 -17 -17 -17 -16 -16 -16 -16 -16 -16 -16 -16 -16 -16 -16 -16 -16 -16 -16 -16 -16 -17 -16 -17 -17 -17 -16
-17 -17 -17 -18 -18 -18 -18 -18 -18 -18 -18 -18 -18 -18 -18 -18 -17 -17 -17 -17 -17 -17 -17 -17 -17 -17 -16 -16 -17 -17 -17 -17 -17 -17 -17 -17 -17 -17 -17 -17 -17 -17
-17 -17 -17 -17 -18 -18 -18 -18 -18 -18 -18 -18 -18 -18 -18 -18 -18 -18 -18 -18 -17 -17 -17 -17 -17 -17 -17 -17 -17 -17 -17 -17 -17 -17 -17 -17 -17 -17 -17 -17 -17 -17
-17 -17 -17 -17 -17 -18 -18 -18 -18 -18 -18 -18 -18 -18 -18 -18 -18 -18 -18 -18 -18 -18 -17 -17 -17 -17 -17 -17 -17 -17 -17 -17 -17 -17 -17 -17 -17 -17 -17 -17 -17 -17
-17 -17 -17 -17 -17 -17 -17 -18 -18 -18 -18 -18 -18 -18 -18 -18 -18 -18 -18 -18 -18 -18 -17 -17 -17 -18 -18 -18 -18 -17 -17 -17 -17 -17 -17 -17 -17 -17 -17 -17 -17 -17
-18 -18 -17 -17 -17 -17 -17 -17 -18 -18 -18 -18 -18 -18 -18 -18 -18 -18 -18 -18 -17 -18 -18 -18 -18 -18 -18 -18 -18 -17 -17 -17 -17 -17 -17 -17 -17 -17 -17 -17 -17 -17
-18 -18 -18 -18 -18 -17 -17 -17 -17 -18 -18 -18 -18 -18 -17 -17 -18 -18 -18 -18 -18 -18 -18 -18 -18 -18 -18 -18 -17 -17 -17 -17 -17 -17 -17 -17 -17 -17 -17 -17 -17 -17
-18 -18 -18 -18 -18 -18 -18 -17 -17 -17 -17 -18 -18 -18 -18 -17 -17 -18 -18 -18 -18 -18 -18 -18 -18 -18 -18 -18 -17 -17 -17 -17 -17 -17 -17 -17 -17 -17 -17 -17 -17 -17
-18 -18 -18 -18 -18 -18 -18 -18 -18 -18 -18 -18 -18 -18 -18 -18 -18 -18 -17 -17 -17 -18 -18 -18 -17 -17 -17 -17 -17 -17 -17 -17 -17 -17 -17 -17 -17 -17 -17 -17 -18 -17
-18 -18 -18 -18 -18 -18 -18 -18 -18 -18 -18 -18 -18 -18 -18 -18 -18 -18 -18 -18 -18 -18 -18 -17 -17 -17 -17 -17 -17 -17 -17 -17 -17 -17 -17 -17 -18 -18 -18 -18 -18 -18
-18 -18 -18 -18 -18 -18 -18 -18 -18 -18 -18 -18 -18 -18 -18 -18 -18 -18 -18 -18 -18 -18 -17 -17 -17 -17 -17 -17 -17 -17 -17 -17 -17 -17 -17 -18 -18 -18 -18 -18 -18 -18
-18 -18 -18 -18 -18 -18 -18 -18 -18 -18 -18 -18 -18 -18 -18 -18 -18 -18 -18 -18 -18 -18 -17 -17 -17 -17 -17 -17 -17 -17 -17 -17 -17 -18 -18 -18 -18 -18 -18 -18 -18 -18
-18 -18 -18 -18 -18 -18 -18 -18 -18 -18 -18 -18 -18 -18 -18 -18 -18 -18 -18 -18 -17 -17 -17 -17 -17 -17 -17 -17 -17 -17 -17 -17 -18 -18 -18 -18 -18 -18 -18 -18 -18 -18
-18 -18 -18 -18 -18 -18 -18 -18 -18 -18 -18 -18 -18 -18 -18 -18 -18 -18 -18 -17 -17 -17 -17 -17 -17 -17 -17 -17 -17 -17 -17 -17 -18 -18 -18 -18 -18 -18 -18 -18 -18 -18
-18 -18 -18 -18 -18 -18 -18 -18 -18 -18 -18 -18 -18 -18 -18 -18 -18 -18 -18 -17 -17 -17 -17 -17 -17 -17 -17 -17 -17 -17 -17 -17 -18 -18 -18 -18 -18 -18 -18 -18 -18 -18
-18 -18 -18 -18 -18 -18 -18 -18 -18 -18 -18 -18 -18 -18 -18 -18 -18 -18 -18 -17 -17 -17 -17 -17 -17 -17 -17 -17 -17 -17 -17 -18 -18 -18 -18 -18 -18 -18 -18 -18 -18 -18
-18 -18 -18 -18 -18 -18 -18 -18 -18 -18 -18 -18 -18 -18 -18 -18 -18 -18 -18 -17 -17 -17 -17 -17 -17 -17 -17 -17 -17 -17 -18 -18 -18 -18 -18 -18 -18 -18 -18 -18 -18 -18
-18 -18 -18 -18 -18 -18 -18 -18 -18 -18 -18 -18 -18 -18 -18 -18 -18 -18 -17 -17 -17 -17 -17 -17 -17 -17 -17 -17 -17 -18 -18 -18 -18 -18 -18 -18 -18 -18 -18 -18 -18 -18
-18 -18 -18 -18 -18 -18 -18 -18 -18 -18 -18 -18 -18 -18 -18 -18 -18 -18 -17 -17 -17 -17 -17 -17 -17 -17 -17 -17 -18 -18 -18 -18 -18 -18 -18 -18 -18 -18 -18 -18 -18 -18
-18 -18 -18 -18 -18 -18 -18 -18 -18 -18 -18 -18 -18 -18 -18 -18 -18 -17 -17 -17 -17 -17 -17 -17 -17 -17 -17 -18 -18 -18 -18 -18 -18 -18 -18 -18 -18 -18 -18 -18 -18 -18
Height
5750 5749 5749 5748 5747 5747 5746 5746 5745 5745 5744 5744 5744 5744 5743 5743 5743 5744 5744 5744 5745 5745 5745 5745 5745 5745 5745 5746 5745 5745 5744 5744 5743 5743 5743 5742 5742 5741 5740 5740 5740 5740
5748 5747 5746 5745 5745 5744 5743 5742 5742 5741 5741 5740 5740 5740 5740 5740 5740 5740 5740 5740 5741 5741 5741 5741 5741 5742 5742 5742 5742 5741 5741 5741 5740 5740 5740 5739 5739 5738 5738 5737 5737 5736
5745 5745 5744 5743 5742 5741 5740 5739 5739 5738 5737 5737 5736 5736 5736 5736 5736 5736 5737 5737 5737 5737 5737 5738 5738 5738 5738 5738 5738 5738 5738 5738 5737 5737 5737 5736 5736 5735 5735 5734 5734 5734
5743 5742 5742 5741 5739 5738 5737 5736 5735 5735 5734 5733 5732 5732 5732 5732 5732 5733 5733 5733 5734 5734 5734 5734 5734 5734 5734 5735 5735 5735 5735 5735 5734 5734 5734 5734 5733 5733 5732 5732 5731 5731
5741 5740 5739 5738 5737 5736 5734 5733 5732 5732 5731 5729 5729 5728 5728 5728 5729 5729 5730 5730 5730 5731 5731 5731 5731 5731 5731 5731 5732 5732 5732 5732 5732 5731 5731 5731 5731 5730 5730 5729 5729 5728
5739 5738 5737 5736 5735 5733 5732 5731 5730 5729 5728 5727 5726 5725 5725 5725 5725 5726 5726 5727 5727 5728 5728 5728 5728 5728 5728 5729 5729 5729 5729 5729 5729 5729 5729 5728 5728 5728 5727 5727 5726 5725
5737 5736 5735 5734 5733 5732 5730 5729 5728 5727 5726 5724 5723 5722 5722 5722 5722 5723 5724 5724 5725 5725 5725 5725 5726 5726 5726 5726 5727 5727 5727 5726 5726 5726 5726 5726 5726 5725 5725 5724 5724 5723
5736 5735 5734 5733 5732 5730 5729 5728 5727 5725 5724 5723 5721 5720 5720 5720 5720 5721 5721 5722 5722 5723 5723 5723 5724 5724 5724 5724 5724 5724 5724 5724 5724 5723 5723 5723 5723 5723 5722 5722 5721 5720
5734 5733 5732 5731 5730 5729 5728 5727 5726 5724 5723 5721 5720 5719 5719 5719 5719 5719 5719 5720 5720 5721 5721 5721 5722 5722 5722 5722 5722 5722 5722 5721 5721 5721 5720 5720 5720 5720 5720 5719 5718 5717
5732 5731 5731 5730 5729 5728 5727 5726 5725 5723 5722 5721 5720 5719 5718 5718 5718 5718 5718 5718 5719 5719 5719 5720 5720 5720 5720 5720 5720 5720 5720 5719 5719 5719 5718 5718 5718 5718 5718 5717 5716 5715
5730 5729 5729 5728 5727 5726 5726 5725 5724 5723 5722 5721 5720 5719 5718 5717 5717 5717 5717 5717 5717 5717 5718 5718 5718 5718 5719 5719 5719 5718 5718 5718 5718 5717 5717 5717 5717 5717 5717 5716 5715 5714
5728 5727 5727 5726 5725 5725 5724 5724 5723 5722 5721 5721 5720 5719 5718 5717 5717 5716 5716 5716 5716 5716 5716 5717 5717 5717 5718 5718 5718 5718 5717 5717 5717 5717 5717 5717 5716 5716 5716 5716 5715 5714
5726 5725 5725 5724 5724 5723 5723 5722 5722 5721 5721 5720 5720 5719 5718 5718 5717 5716 5716 5716 5715 5716 5716 5716 5716 5717 5717 5717 5717 5717 5717 5717 5716 5716 5716 5716 5716 5716 5716 5716 5715 5715
5723 5723 5723 5722 5722 5721 5721 5721 5720 5720 5720 5720 5719 5719 5718 5718 5717 5716 5716 5716 5716 5716 5716 5716 5716 5716 5716 5716 5716 5716 5716 5716 5716 5716 5716 5716 5716 5716 5716 5716 5716 5715
5721 5721 5721 5720 5720 5719 5719 5719 5719 5719 5719 5719 5719 5719 5718 5718 5717 5716 5716 5716 5716 5716 5716 5716 5716 5716 5716 5716 5716 5716 5716 5716 5716 5716 5716 5716 5716 5716 5716 5716 5716 5716
5719 5719 5719 5719 5718 5718 5717 5717 5717 5717 5717 5717 5717 5718 5718 5717 5717 5716 5716 5716 5716 5716 5715 5715 5715 5715 5716 5716 5716 5716 5716 5716 5716 5716 5716 5716 5716 5717 5717 5716 5716 5716
5717 5717 5717 5717 5716 5716 5716 5716 5716 5715 5716 5716 5716 5716 5716 5716 5716 5716 5715 5715 5715 5715 5715 5715 5715 5715 5715 5715 5715 5715 5716 5716 5716 5716 5717 5717 5717 5717 5717 5717 5716 5716
5715 5714 5715 5715 5714 5714 5714 5714 5714 5714 5714 5714 5714 5715 5715 5715 5715 5715 5715 5714 5714 5714 5714 5714 5715 5715 5715 5715 5716 5716 5716 5716 5716 5716 5717 5717 5717 5717 5717 5716 5716 5716
5712 5712 5712 5712 5713 5712 5712 5712 5712 5712 5712 5713 5713 5713 5713 5714 5714 5714 5714 5714 5714 5714 5714 5714 5714 5715 5715 5715 5716 5716 5716 5716 5716 5717 5717 5717 5717 5717 5716 5716 5716 5715
5710 5710 5710 5710 5710 5711 5710 5710 5710 5711 5711 5711 5711 5712 5712 5712 5712 5713 5713 5713 5713 5713 5714 5714 5714 5715 5715 5715 5716 5716 5716 5716 5716 5716 5716 5716 5716 5716 5716 5715 5715 5714
5708 5708 5708 5708 5709 5709 5709 5708 5709 5709 5709 5709 5710 5710 5710 5711 5711 5711 5712 5712 5712 5713 5713 5714 5714 5715 5715 5715 5715 5715 5716 5716 5716 5716 5716 5716 5715 5715 5715 5714 5714 5713
5706 5706 5706 5706 5707 5707 5707 5706 5707 5707 5708 5708 5708 5709 5709 5709 5710 5710 5711 5711 5712 5712 5713 5713 5714 5714 5714 5715 5715 5715 5715 5715 5715 5715 5715 5715 5714 5714 5713 5713 5712 5712
5704 5704 5704 5705 5705 5705 5705 5705 5705 5705 5706 5707 5707 5707 5708 5708 5709 5709 5710 5710 5711 5711 5712 5713 5713 5713 5713 5714 5714 5714 5714 5714 5714 5714 5713 5713 5713 5713 5712 5711 5711 5710
5703 5703 5703 5703 5703 5703 5703 5703 5703 5704 5704 5705 5706 5706 5706 5707 5707 5708 5709 5709 5710 5711 5711 5712 5712 5712 5712 5713 5713 5713 5713 5713 5713 5712 5712 5712 5712 5711 5710 5710 5709 5708
5701 5701 5701 5701 5701 5701 5701 5702 5702 5702 5703 5704 5704 5705 5705 5706 5706 5707 5708 5708 5709 5710 5710 5710 5711 5711 5711 5711 5711 5712 5712 5712 5711 5711 5711 5710 5710 5709 5708 5708 5706 5705
5699 5700 5700 5700 5700 5700 5700 5700 5701 5701 5702 5702 5703 5703 5704 5705 5705 5706 5707 5708 5708 5709 5709 5709 5710 5710 5710 5710 5710 5710 5710 5710 5710 5710 5709 5709 5708 5707 5706 5705 5704 5703
Wind_Speed
21 23 24 25 27 28 29 30 31 32 33 34 35 35 35 35 35 35 35 34 33 33 32 32 32 31 31 31 31 32 32 32 31 30 30 30 29 29 28 28 29 31
19 21 22 23 25 26 27 28 29 30 32 33 34 35 35 36 36 36 35 35 34 34 33 33 33 32 31 31 32 32 32 31 31 30 29 29 28 28 28 28 29 31
18 20 21 22 23 24 25 26 27 28 29 30 32 33 34 35 35 35 35 34 33 33 33 32 31 31 31 31 31 31 31 30 30 29 29 28 28 28 28 28 28 30
18 19 20 21 22 23 23 24 24 24 25 27 28 29 30 31 32 32 32 32 32 32 31 30 28 28 29 29 29 29 29 29 29 29 28 27 26 26 26 26 26 26
16 16 17 18 18 19 20 20 20 20 21 22 23 24 25 26 27 27 27 27 28 28 27 26 25 25 26 27 27 27 27 27 27 27 26 25 24 24 24 24 24 24
13 13 13 14 15 16 17 18 18 18 18 18 18 19 19 19 20 21 21 22 22 22 23 22 22 23 24 25 25 25 24 24 24 24 24 23 23 23 23 23 24 24
12 12 12 12 13 14 15 16 16 17 17 16 15 14 14 14 14 15 16 16 17 18 18 19 19 20 21 22 22 22 21 21 22 23 22 22 22 22 22 22 23 23
12 11 11 11 11 13 14 14 15 15 16 15 14 13 12 11 11 12 13 13 14 14 15 16 17 18 18 19 20 20 20 21 21 22 22 22 22 21 20 19 20 21
12 12 11 11 11 12 12 13 13 13 14 14 13 12 11 11 11 11 12 12 12 13 14 15 15 16 17 19 19 20 20 20 20 20 20 19 18 17 16 15 16 17
13 13 12 11 11 11 12 12 12 12 13 13 12 11 10 9 9 10 11 11 12 12 13 14 14 15 15 15 15 15 15 15 15 15 14 14 13 12 11 11 12 13
13 14 13 12 12 11 11 11 11 11 11 12 11 10 8 8 7 7 8 9 9 10 10 10 10 10 9 9 9 10 10 10 10 10 10 9 9 8 7 7 6 7
14 14 14 13 13 12 11 11 11 10 10 10 11 10 8 7 6 5 5 5 5 5 5 5 5 5 5 6 6 7 7 8 7 7 6 6 5 4 4 5 7 9
14 14 15 14 13 13 12 11 11 10 10 9 9 9 8 7 6 5 4 4 3 3 3 3 3 4 4 5 5 6 6 6 5 5 4 3 3 4 6 7 9 10
15 15 15 14 14 13 13 12 11 11 10 9 8 8 7 6 5 4 4 3 3 3 2 2 2 2 2 3 3 3 3 3 3 3 3 3 4 5 7 8 8 9
16 15 15 15 14 13 13 12 12 11 11 10 9 8 7 6 5 4 3 3 2 2 2 2 2 2 2 2 1 1 1 2 2 3 4 4 5 6 6 6 7 7
16 15 15 15 14 13 13 12 12 12 11 11 10 9 8 6 5 4 4 3 2 2 1 1 2 2 3 3 3 3 3 3 3 4 4 5 5 5 5 5 5 6
15 15 15 15 14 13 12 12 12 12 12 11 10 9 8 7 6 5 4 3 3 2 1 0 1 2 3 3 3 3 3 3 3 3 4 5 5 3 3 3 3 5
15 15 14 14 14 13 12 11 11 11 11 11 10 9 8 7 7 6 5 4 3 2 1 1 2 3 3 3 3 2 2 2 2 2 4 4 2 1 2 2 4 5
15 15 14 14 14 13 12 11 11 11 11 10 10 9 8 8 7 6 5 4 3 2 2 2 2 3 3 3 2 2 2 2 2 3 4 3 1 1 2 4 5 7
14 15 15 15 14 12 11 11 10 10 10 10 9 9 8 8 7 6 5 4 3 2 2 2 2 2 2 2 2 1 1 2 2 3 4 3 4 5 6 7 9 10
14 15 15 15 14 12 11 11 10 9 9 9 9 8 8 7 7 6 5 4 3 3 3 2 2 2 1 1 1 0 1 2 2 3 4 5 7 8 9 11 12 13
14 15 15 15 14 11 10 10 9 9 9 9 8 8 8 7 7 6 5 4 4 3 2 2 1 1 0 0 1 1 1 2 3 4 6 7 9 10 11 13 14 15
13 15 15 15 13 10 9 8 8 8 8 8 8 8 8 7 7 7 6 5 4 3 2 2 1 1 1 1 1 2 2 3 5 6 7 8 9 11 12 14 15 17
13 14 14 13 12 9 8 8 8 8 8 8 8 8 8 8 8 7 6 6 4 3 3 2 2 2 2 2 2 3 3 4 6 7 8 9 11 12 13 15 16 18
12 13 13 12 10 8 7 7 7 8 8 7 8 8 8 8 8 8 7 6 5 4 4 3 3 3 3 3 3 4 5 6 7 8 9 11 12 13 15 16 18 19
11 11 11 10 9 7 7 7 7 7 8 7 8 8 9 9 9 8 8 7 6 5 5 5 4 4 4 4 5 6 7 8 9 9 10 12 14 15 17 18 19 21
Wind_Direction
277 277 277 276 276 275 274 272 270 267 266 264 263 263 263 263 264 264 264 263 263 262 262 262 262 262 264 267 270 273 276 278 279 280 281 283 285 287 287 285 282 278
281 281 280 279 278 277 276 274 273 271 269 266 265 264 263 263 263 264 265 265 265 264 263 263 263 263 264 265 268 271 275 277 278 279 280 281 283 284 286 285 283 280
283 282 281 280 280 279 278 277 275 273 271 269 267 265 264 263 263 264 265 266 266 266 266 266 264 263 262 263 266 269 272 275 276 278 279 280 281 283 285 286 286 285
285 283 282 282 282 282 282 281 280 278 275 272 268 266 264 263 263 263 264 265 265 266 266 266 264 262 261 263 265 267 269 272 274 276 278 279 281 283 285 288 290 291
291 290 290 289 289 289 289 289 288 286 283 278 272 268 265 263 263 263 263 264 264 265 265 264 261 260 261 263 265 267 269 271 273 275 278 280 282 284 287 290 294 297
300 301 301 301 301 300 299 299 298 298 297 291 281 272 268 266 264 263 264 264 264 264 263 261 260 261 262 264 266 269 271 272 274 277 279 282 284 287 290 293 297 300
303 307 309 310 310 309 308 308 307 307 308 306 296 282 273 270 267 265 265 264 264 264 262 261 262 263 264 266 269 272 275 277 279 281 284 286 289 290 293 295 297 298
301 304 309 311 313 313 314 316 316 314 315 316 311 297 281 273 269 267 265 263 262 262 262 263 264 266 268 270 273 276 278 280 283 285 288 290 292 294 296 297 297 297
299 300 304 308 310 313 317 322 324 323 321 319 318 311 298 284 275 271 268 265 262 261 262 263 265 267 270 273 276 280 283 286 288 290 291 293 294 296 299 299 298 297
298 298 300 303 306 311 317 323 327 329 327 325 324 322 314 301 287 277 271 268 265 263 263 265 267 270 273 278 283 288 292 294 294 295 296 297 298 302 305 307 306 306
297 297 297 298 302 307 313 319 324 328 329 331 332 331 325 318 307 293 282 275 271 269 269 270 273 277 283 289 295 299 300 301 302 302 302 303 306 313 321 332 341 349
296 296 295 294 296 300 305 311 316 321 325 330 335 336 336 337 333 326 312 297 289 283 280 281 283 287 291 295 299 302 305 308 311 312 314 318 327 344 15 39 48 50
292 293 294 293 294 295 298 302 305 311 317 323 328 330 335 344 350 351 349 341 330 319 309 302 297 295 295 297 301 304 307 312 318 326 338 355 22 49 64 69 67 64
287 289 290 290 292 292 294 297 298 301 305 311 318 320 324 333 343 353 359 1 2 3 359 350 330 316 313 312 315 315 317 329 345 4 28 54 71 79 80 76 70 63
283 283 284 285 287 289 291 294 296 297 298 300 305 309 313 318 321 328 337 349 5 18 31 49 62 63 62 59 49 50 58 59 65 74 78 84 87 87 80 68 59 53
280 279 280 281 281 284 288 293 294 295 294 294 295 298 302 305 305 306 308 312 325 343 1 48 77 83 85 87 88 91 87 87 94 95 96 99 98 89 74 58 47 37
278 277 277 277 277 280 284 289 292 292 291 291 291 291 293 295 297 296 292 289 294 295 286 170 102 91 83 81 81 81 81 88 96 100 109 116 111 93 67 46 24 6
276 276 275 274 273 275 279 284 289 290 289 288 287 287 286 287 290 290 284 277 274 266 236 143 103 91 83 80 81 84 91 104 113 128 138 138 123 75 33 6 349 342
275 276 275 273 271 271 275 281 285 287 286 285 282 281 281 281 282 282 278 267 249 220 177 135 112 105 101 100 107 119 131 146 164 166 167 174 231 311 323 327 328 329
275 275 274 272 269 269 273 279 283 285 285 282 278 276 275 276 276 277 275 259 222 187 161 144 132 125 118 116 129 150 162 179 194 199 211 243 282 299 309 316 319 319
273 273 273 271 268 268 272 277 280 282 281 277 273 271 271 272 271 270 265 245 209 182 164 153 144 134 123 105 107 166 206 223 230 238 255 276 292 302 308 311 312 311
271 272 272 270 267 267 270 274 276 276 274 270 267 265 265 264 263 261 252 228 203 189 175 165 160 159 137 6 332 306 288 279 277 280 287 294 300 305 307 308 308 308
272 272 271 269 267 266 268 271 271 269 268 265 262 259 259 258 256 251 237 216 202 196 190 189 200 228 272 297 309 313 312 307 304 302 302 304 305 305 306 307 308 310
272 271 270 267 265 264 264 265 265 264 262 260 257 255 254 253 249 240 225 210 203 202 206 218 231 245 269 286 304 317 318 314 310 307 306 306 305 306 308 311 314 316
271 269 268 266 264 261 260 260 260 260 259 256 253 250 248 247 242 229 215 207 205 211 221 232 241 251 265 281 299 306 305 303 301 301 302 304 307 310 314 317 318 319
269 268 267 266 264 261 259 259 259 258 256 251 248 245 243 241 233 219 208 205 209 217 227 237 247 257 269 281 289 291 291 293 295 298 302 305 309 312 314 316 317 318